Hourly Weather Bolshie Sehnovichi

Today, 31 July, Saturday

Time Temperature Precipitation Wind Pressure Humidity
00:00 +20°C° 0 mm 1 mps 743 mmHg 68%
01:00 +19°C° 0 mm 2 mps 743 mmHg 69%
02:00 +19°C° 0 mm 2 mps 743 mmHg 69%
03:00 +18°C° 0 mm 2 mps 743 mmHg 70%
04:00 +18°C° 0 mm 2 mps 743 mmHg 71%
05:00 +17°C° 0 mm 2 mps 743 mmHg 72%
06:00 +19°C° 0 mm 2 mps 743 mmHg 67%
07:00 +21°C° 0 mm 2 mps 743 mmHg 62%
08:00 +23°C° 0 mm 2 mps 743 mmHg 58%
09:00 +25°C° 0 mm 2 mps 743 mmHg 53%
10:00 +27°C° 0 mm 2 mps 744 mmHg 49%
11:00 +28°C° 0 mm 2 mps 744 mmHg 44%
12:00 +29°C° 0 mm 2 mps 743 mmHg 43%
13:00 +30°C° 0 mm 3 mps 743 mmHg 41%
14:00 +31°C° 0 mm 3 mps 743 mmHg 39%
15:00 +31°C° 0 mm 2 mps 743 mmHg 41%
16:00 +31°C° 0 mm 2 mps 742 mmHg 42%
17:00 +31°C° 0 mm 2 mps 742 mmHg 43%
18:00 +28°C° 0.3 mm 3 mps 742 mmHg 56%
19:00 +25°C° 0.3 mm 3 mps 743 mmHg 69%
20:00 +21°C° 0.3 mm 4 mps 743 mmHg 82%
21:00 +20°C° 0.4 mm 4 mps 743 mmHg 85%
22:00 +20°C° 0.4 mm 4 mps 743 mmHg 89%
23:00 +19°C° 0.4 mm 3 mps 744 mmHg 92%

Tomorrow, 1 August, Sunday

Time Temperature Precipitation Wind Pressure Humidity
00:00 +18°C° 0 mm 3 mps 744 mmHg 93%
01:00 +18°C° 0 mm 3 mps 744 mmHg 94%
02:00 +18°C° 0 mm 2 mps 744 mmHg 95%
03:00 +17°C° 0 mm 2 mps 744 mmHg 95%
04:00 +17°C° 0 mm 2 mps 744 mmHg 95%
05:00 +17°C° 0 mm 2 mps 744 mmHg 95%
06:00 +18°C° 0 mm 2 mps 744 mmHg 87%
07:00 +20°C° 0 mm 2 mps 744 mmHg 80%
08:00 +21°C° 0 mm 2 mps 744 mmHg 72%
09:00 +24°C° 0 mm 2 mps 744 mmHg 64%
10:00 +25°C° 0 mm 2 mps 744 mmHg 55%
11:00 +27°C° 0 mm 2 mps 745 mmHg 46%
12:00 +28°C° 0 mm 2 mps 744 mmHg 45%
13:00 +28°C° 0 mm 2 mps 744 mmHg 44%
14:00 +29°C° 0 mm 3 mps 743 mmHg 43%
15:00 +27°C° 0.5 mm 3 mps 743 mmHg 56%
16:00 +25°C° 0.5 mm 3 mps 743 mmHg 68%
17:00 +21°C° 0.5 mm 3 mps 743 mmHg 81%
18:00 +21°C° 0.6 mm 3 mps 743 mmHg 86%
19:00 +20°C° 0.6 mm 2 mps 742 mmHg 90%
20:00 +19°C° 0.6 mm 2 mps 742 mmHg 94%
21:00 +19°C° 2.7 mm 2 mps 742 mmHg 95%
22:00 +19°C° 2.7 mm 2 mps 742 mmHg 96%
23:00 +18°C° 2.7 mm 2 mps 742 mmHg 97%

Day after tomorrow, 2 August, Monday

Time Temperature Precipitation Wind Pressure Humidity
00:00 +19°C° 1.5 mm 2 mps 741 mmHg 97%
01:00 +19°C° 1.5 mm 2 mps 740 mmHg 97%
02:00 +20°C° 1.5 mm 1 mps 740 mmHg 97%
03:00 +19°C° 0.2 mm 2 mps 740 mmHg 97%
04:00 +18°C° 0.2 mm 2 mps 740 mmHg 97%
05:00 +18°C° 0.2 mm 3 mps 740 mmHg 97%
06:00 +18°C° 0.2 mm 4 mps 740 mmHg 96%
07:00 +16°C° 0.2 mm 5 mps 741 mmHg 95%
08:00 +15°C° 0.2 mm 6 mps 741 mmHg 93%
09:00 +16°C° 0.1 mm 5 mps 742 mmHg 88%
10:00 +17°C° 0.1 mm 5 mps 742 mmHg 83%
11:00 +17°C° 0.1 mm 5 mps 743 mmHg 78%
12:00 +19°C° 0 mm 4 mps 743 mmHg 76%
13:00 +19°C° 0 mm 4 mps 743 mmHg 74%
14:00 +20°C° 0 mm 4 mps 744 mmHg 72%
15:00 +20°C° 0.1 mm 4 mps 744 mmHg 71%
16:00 +21°C° 0.1 mm 4 mps 744 mmHg 70%
17:00 +21°C° 0.1 mm 4 mps 744 mmHg 69%
18:00 +20°C° 0.1 mm 4 mps 744 mmHg 73%
19:00 +19°C° 0.1 mm 4 mps 744 mmHg 78%
20:00 +18°C° 0.1 mm 3 mps 744 mmHg 82%
21:00 +17°C° 0 mm 3 mps 745 mmHg 85%
22:00 +17°C° 0 mm 3 mps 745 mmHg 88%
23:00 +16°C° 0 mm 3 mps 745 mmHg 91%

3 August, Tuesday

Time Temperature Precipitation Wind Pressure Humidity
00:00 +14°C° 0 mm 3 mps 745 mmHg 92%
01:00 +14°C° 0 mm 3 mps 746 mmHg 92%
02:00 +14°C° 0 mm 3 mps 746 mmHg 93%
03:00 +14°C° 0 mm 3 mps 746 mmHg 93%
04:00 +13°C° 0 mm 3 mps 746 mmHg 93%
05:00 +13°C° 0 mm 3 mps 746 mmHg 93%
06:00 +14°C° 0 mm 3 mps 747 mmHg 83%
07:00 +17°C° 0 mm 4 mps 747 mmHg 74%
08:00 +18°C° 0 mm 4 mps 747 mmHg 65%
09:00 +19°C° 0 mm 4 mps 747 mmHg 61%
10:00 +20°C° 0 mm 4 mps 748 mmHg 57%
11:00 +21°C° 0 mm 4 mps 748 mmHg 53%
12:00 +21°C° 0 mm 4 mps 748 mmHg 50%
13:00 +22°C° 0 mm 5 mps 748 mmHg 48%
14:00 +23°C° 0 mm 5 mps 748 mmHg 45%
15:00 +22°C° 0 mm 4 mps 747 mmHg 49%
16:00 +21°C° 0 mm 4 mps 747 mmHg 52%
17:00 +21°C° 0 mm 3 mps 747 mmHg 55%
18:00 +20°C° 0 mm 3 mps 747 mmHg 59%
19:00 +19°C° 0 mm 2 mps 748 mmHg 62%
20:00 +18°C° 0 mm 2 mps 748 mmHg 65%
21:00 +17°C° 0 mm 2 mps 748 mmHg 66%
22:00 +17°C° 0 mm 2 mps 748 mmHg 66%
23:00 +16°C° 0 mm 2 mps 748 mmHg 66%

4 August, Wednesday

Time Temperature Precipitation Wind Pressure Humidity
00:00 +16°C° 0 mm 2 mps 748 mmHg 66%
01:00 +16°C° 0 mm 2 mps 748 mmHg 66%
02:00 +15°C° 0 mm 2 mps 748 mmHg 67%
03:00 +16°C° 0 mm 2 mps 748 mmHg 67%
04:00 +16°C° 0 mm 2 mps 748 mmHg 66%
05:00 +16°C° 0 mm 2 mps 748 mmHg 66%
06:00 +17°C° 0.1 mm 2 mps 748 mmHg 70%
07:00 +18°C° 0.1 mm 2 mps 748 mmHg 73%
08:00 +18°C° 0.1 mm 2 mps 748 mmHg 77%
09:00 +20°C° 0 mm 3 mps 748 mmHg 70%
10:00 +22°C° 0 mm 3 mps 748 mmHg 64%
11:00 +25°C° 0 mm 4 mps 748 mmHg 58%
12:00 +26°C° 0.2 mm 4 mps 747 mmHg 54%
13:00 +27°C° 0.2 mm 4 mps 747 mmHg 51%
14:00 +28°C° 0.2 mm 4 mps 747 mmHg 47%
15:00 +26°C° 0.9 mm 4 mps 746 mmHg 55%
16:00 +25°C° 0.9 mm 3 mps 746 mmHg 63%
17:00 +22°C° 0.9 mm 3 mps 746 mmHg 71%
18:00 +21°C° 0.5 mm 2 mps 746 mmHg 74%
19:00 +21°C° 0.5 mm 1 mps 746 mmHg 76%
20:00 +20°C° 0.5 mm 1 mps 746 mmHg 78%
21:00 +20°C° 0 mm 1 mps 746 mmHg 80%
22:00 +20°C° 0 mm 1 mps 746 mmHg 81%
23:00 +18°C° 0 mm 2 mps 746 mmHg 82%

5 August, Thursday

Time Temperature Precipitation Wind Pressure Humidity
00:00 +18°C° 0 mm 2 mps 746 mmHg 85%
01:00 +17°C° 0 mm 2 mps 746 mmHg 87%
02:00 +17°C° 0 mm 2 mps 745 mmHg 89%
03:00 +17°C° 0.2 mm 3 mps 745 mmHg 90%
04:00 +17°C° 0.2 mm 3 mps 744 mmHg 91%
05:00 +17°C° 0.2 mm 3 mps 744 mmHg 92%
06:00 +18°C° 0.2 mm 4 mps 743 mmHg 89%
07:00 +19°C° 0.2 mm 5 mps 742 mmHg 86%
08:00 +20°C° 0.2 mm 5 mps 742 mmHg 83%
09:00 +22°C° 0 mm 5 mps 741 mmHg 77%
10:00 +23°C° 0 mm 4 mps 741 mmHg 71%
11:00 +25°C° 0 mm 4 mps 741 mmHg 66%
12:00 +24°C° 0.3 mm 3 mps 741 mmHg 72%
13:00 +22°C° 0.3 mm 3 mps 741 mmHg 78%
14:00 +21°C° 0.3 mm 2 mps 741 mmHg 84%
15:00 +21°C° 0.4 mm 2 mps 740 mmHg 84%
16:00 +21°C° 0.4 mm 2 mps 740 mmHg 84%
17:00 +21°C° 0.4 mm 2 mps 739 mmHg 84%
18:00 +20°C° 0.4 mm 2 mps 739 mmHg 87%
19:00 +20°C° 0.4 mm 2 mps 738 mmHg 91%
20:00 +19°C° 0.4 mm 2 mps 738 mmHg 94%
21:00 +18°C° 0.5 mm 2 mps 738 mmHg 94%
22:00 +18°C° 0.5 mm 2 mps 738 mmHg 94%
23:00 +17°C° 0.5 mm 2 mps 738 mmHg 95%
Show more

We Need Your Consent

Meteoprog and our Service Providers may store and access personal data such as cookies, device identifiers or other similar technologies on your device and process such data to personalise content and ads, as well as provide social media features and to analyse the traffic.

  • Store and/or access information on your device

    Cookies, device identifiers or other information can be stored or accessed on your device for the purposes indicated above.

  • Personalised ads and content, ad and content measurement, audience insights, and products development

    Ads and content can be personalised based on a profile. More data can be added to better personalise ads and content. Ad and content performance can be measured. Insights about the audience who saw the ads and content can be derived. Such data can be used to develop or improve user’s experience, systems and software.

By clicking ‘I Agree’ you will allow the use of indicated cookies, device identifiers, web beacons or other similar technologies. Your settings can be changed in the browser on your device.

For certain purposes, legitimate interests may be relied on, rather than consent. You can read more about this in our Privacy and Cookie Policy.